Погода в Аджмере

Индия     26°26′53″N   74°38′44″E
темп.,
°C
ветер,
м/с
пор.,
м/с
влажн.,
%
обл.,
%
осадки,
мм/ч
давл.,
гПа
погр.,
м
29 июля, чт
чт2923:30+26зюз8138178 1.6 999659
02:30+25зюз61183100 0.0 998714
05:30+25зюз61186100 0.0 998723
08:30+25зюз5984100 0.1 999668
11:30+27юз787892 0.4 1000752
14:30+29зюз796499 0.1 9981040
17:30+30зюз6865100 0.2 9971085
20:30+29зюз5106898 0.1 998687
30 июля, пт
пт3023:30+28зюз6107379 0.1 999658
02:30+26зюз6118497 0.0 998592
05:30+25з7118753 0.0 998584
08:30+27з7977100 0.0 999709
11:30+31з556098 0.0 10001273
14:30+33з5454100 0.1 9981608
17:30+31зюз2361100 2.8 997476
20:30+30зюз5966100 0.5 998489
31 июля, сб
сб3123:30+28зюз71172100 0.6 999504
02:30+27зюз51079100 1.4 998538
05:30+26зюз71088100 4.0 999554
08:30+25з598998 4.6 1000430
11:30+27з6882100 8.5 1001467
14:30+25зюз3591100 6.9 1000226
17:30+25зюз4690100 11.6 999172
20:30+26зюз3987100 0.1 999314
1 августа, вс
вс123:30+26зюз5118281 0.4 1001426
02:30+26з6128499 1.8 999403
05:30+25з51090100 4.6 999286
08:30+27з788438 1.2 1000536
11:30+30з6669100 5.6 999679
14:30+32зсз445899 4.0 9971283
17:30+30сз2366100 11.6 997267
20:30+28ююз3474100 3.1 99884
2 августа, пн
пн223:30+26зюз41184100 10.9 999465
02:30+26зюз3985100 4.2 998418
05:30+25з5988100 8.6 998364
08:30+26з7984100 4.1 1000439
11:30+28з6675100 6.4 1000819
14:30+29з6670100 0.2 999961
17:30+27з7978100 3.3 1000609
20:30+25зюз71088100 0.4 1000443